"Pseudo-MPEC" for CALRCC2

Created 2024 May 19 23:22:05 UT using Find_Orb

Click here for an explanation of pseudo-MPECs

 
 Astrometry: 
     CALRCC2  C2024 03 18BE88#r2jf65X*E/rL.ss*'Hs9EjXgjXY(\R:r+D-c(SLG%xUyK`ZF52
     CALRCC2  C2024 03 18t3NsW,aGd@PLD[DO%Rmb_?/d=CXxqkLkIXRJvrTwEyXCN7uuy4obF52
     CALRCC2  C2024 03 18y3'p09n(+@s.R%2Owgvf8@nOoj)^9E]L-6@%BkgOpy$nf*DRv!%hF52
     CALRCC2 KC2024 03 29E.L^TcdZpTrsYodFD[F)2`'?\Fta4?J:#X#AlsAGF:;Y'9:'owmUF52
     CALRCC2 KC2024 04 20$2kJ`,8%VR\4U#')y(OmbDLi7fp,c;B*,lk8_pI7-]G0PcYWc#)RF52
     CALRCC2 KC2024 04 26nJ#3A;/K!9;gRtS^r]HsY6sbBg2EA@\/F]eQ]m3WGfptJrG@Q]:mF52
     CALRCC2 KC2024 04 27%[Z%#Zy9CEw/b(iEOWQi'%mSL3^c'Qhc1GfEG%ilVR.8ATBDesglF51
     CALRCC2*1C2024 05 11.26844114 15 42.948+47 26 27.67   ~5B7M 21.29GVNEOCPG96
     CALRCC2 1C2024 05 11.27403514 15 42.595+47 26 29.54   ~5B7M 19.98GVNEOCPG96
     CALRCC2 1C2024 05 11.27958414 15 42.116+47 26 32.14   ~5B7M 19.99GVNEOCPG96
     CALRCC2 1C2024 05 11.28502214 15 41.886+47 26 34.12   ~5B7M 20.11GVNEOCPG96
     CALRCC2 KC2024 05 11.35014814 15 37.609+47 27 02.74   ~5B9M 20.75GVNEOCPI52
     CALRCC2 KC2024 05 11.35769614 15 37.091+47 27 05.98   ~5B9M 20.77GVNEOCPI52
     CALRCC2 KC2024 05 11.36511014 15 36.562+47 27 09.40   ~5B9M       VNEOCPI52
     CALRCC2 KC2024 05 11.37253214 15 36.220+47 27 14.00   ~5B9Mx      VNEOCPI52
     CALRCC2 KB2024 05 11xZy$G]gO4/lWXEX7hJH@3:A\:,/'R-;Qe4Rk7sIQajUceh#'/:AoY66
     CALRCC2 KB2024 05 11IG1=Rv3@)%wESr@U#'2D?!!Fd;AZ?C[P:hMbc,_b#9ZCH7$JHAK#Y66
     CALRCC2 KB2024 05 11gi?b#8+_By'HMi23ON6B/3jF7GJ9hOq0?jrB(X[JWbL^,8L[gWvPY66
     CALRCC2 KC2024 05 11!vAHG57P,Govsl$QMNcjT!Pm'eZDBVNC,ol-*]^6^-fWyjc'rKM[104
     CALRCC2 KC2024 05 11!@cf-b0[+p*Q$54b%LIl*I6G*/MU6.V0Kv0X^tmCjxungc0FjZ8tL27
     CALRCC2 KC2024 05 11])Ag8HB(VR8((:fvbcf:85[VE'FYt@#;)oc%QsWiU9kJYgfC-[B;104
     CALRCC2 KC2024 05 127hB]GpWMLGviMMc^rxaBW(.T6h62)'T?VPPt$#ulHN/aD(_,$phgL27
     CALRCC2 KC2024 05 12KX/;kmBEs;U#AstrometrylO'IK(oM0%4TaM:?x],I;p`c:`6V;9K83
     CALRCC2 KC2024 05 12kAKp#@C3y2A:_6Z]sf`h\$Oy?55O*OQOJVEMPC:PU5Dn%$,RElA'K83
     CALRCC2 KC2024 05 12KJ[D9psCE$soZrvd;6:J9?+=K^bqYDB)%fBu9?u=ljQeAZW0+7IJL27
     CALRCC2 KC2024 05 12CgO'O`swCxc?NW^INQm4BvlR[]_C4ari!FfDx)=L`u5-i;#W7S#iL27
     CALRCC2 0C2024 05 125aEtgBc);R*;)9GF@bow/8l2p]fsL!ZLOn8+cjiXbrLdsFLu;#+.U94
     CALRCC2 0C2024 05 12I=$,)Q2^f84haM$qp]3i/wU#7JZBX):6iwh\T:JvUP#Z!s=ifX5DU94
     CALRCC2 KB2024 05 13p9$lrb`.Q^P-t^D4WN77Pe.?[h_:#]d=0i$qw/U(q)fs'U*UFB_1185
     CALRCC2 KB2024 05 13*$msavU%mq5\O`49o0x\]%7g[^ctInSgqW=\1xLG'2[@(QPZ4g`%185
     CALRCC2 KB2024 05 13Uu=og2]Ss;qQ\RW)Yj?Lp*,^rF'u[EEH2G`?uU6O,L'dV:.On4Ey185
     CALRCC2 KC2024 05 13t^KA,7Q;`=c7^U'3;TnYd.g9#U8VPv'qR3redacted;gj)P6F*M*G00
     CALRCC2 KC2024 05 13_Tq.eZLs!evW$R-3XSyCs(M/(W62pj)pSnP%BREcIKp#8N09M-20G00
     CALRCC2 KC2024 05 134u8E1%;Ub2bWByHgq16v[m5c$N71:!5mEraU[MlC`EF'pWqmmd(VG00
     CALRCC2 KC2024 05 14.21325414 12 36.716+47 46 10.81   ~5E5q 20.11GVNEOCPI52
     CALRCC2 KC2024 05 14.21990214 12 36.346+47 46 12.14   ~5E5q 19.89GVNEOCPI52
     CALRCC2 KC2024 05 14.22567314 12 35.939+47 46 14.56   ~5E5q 20.16GVNEOCPI52
     CALRCC2 KC2024 05 14.23150314 12 35.564+47 46 17.08   ~5E5q 20.22GVNEOCPI52
     CALRCC2 KB2024 05 14B0GTJH.9pS9BnHWuf#?He-sv$fiCHFeXms\p'u@5hb)6t%Wwx7cEA71
     CALRCC2 KB2024 05 14s_#_)-)f?clickP_!FgP@r]_.Wd?TbWT%VM?3f4M+l[_G(Q\I_v2A71
     CALRCC2 KB2024 05 14:QKW.Y\daURMWfUbf!D%I`T(vXBrj^3Acj*CLH*\W9ff,h2krEbnA71
     CALRCC2 KB2024 05 15#*AmCTi,DMOJuY,vkWVIyV[j6-6RUm7vhere;Z*^@(1JS`]9\NmSM45
     CALRCC2 KB2024 05 15`I9Y7*Ixt-Am^\'htGq+q$lU=(]e[w477H(AqoM46@rMG:GI1St5M45
     CALRCC2 KB2024 05 16yO-'gL=d`.!b7v4=Ea+\\W/]rV`)c[sb0ZDw,aFo=/`nw$9^cOtAY66
     CALRCC2 KB2024 05 16^29orv2SIu]s;CZ1j))SjwPHjh1@=,XOy'GP:Uyis7bhZv$%)WIZY66
     CALRCC2 KB2024 05 16aKJ*7DGCWvw^wMRRLAK=):x%:_C4b#O4'Y%L]yALt,SoXpyrnXfKY66
     CALRCC2 KB2024 05 16qc_Z@hH!HM'NOd+O,_UZk.)#%\OM;;RfXkRZHT(O[0YF;b,T=@I#Y66
     CALRCC2 KB2024 05 16_`S2UH?A'0B3jDgLt#]-#xoc-f)-F,0+lcGf]CforGGeZ8/Hd]%!Y66
     CALRCC2 KB2024 05 16j(9kaZNn4X2'v*(bA%/hjiZTky7J\RTOw;/Kcj`BA`#')iIs2^M$Y66
     CALRCC2 KC2024 05 17]?N]U[l*Xan*K^jm:eehE[q4^kFBr$YkSq4c+FJSPu7tB+_-_N,@L06
     CALRCC2 KC2024 05 17y@XDg!qkZbxQcfnH3?!=nllkwQR\Y_VY%4#FitlJ7jUT1$xwW;kIL06
     CALRCC2 KB2024 05 17-6F9i\r(8+aLc.]@NDO(/S^-P;Ivd0explanation2dIUFB]8'EeY66
     CALRCC2 KB2024 05 17j-[(aUV+*9o8whmKd1\Qv+`v'D5cCTS*i[kD8P(+E@(HcOMMa/X7Y66
     CALRCC2 KB2024 05 17o?3P=9:0mDS(5Qt?4%eTbg=7:Ex$W5Mv##mYq-DQwF@)A`=%KbliY66
     CALRCC2 DC2024 05 19T,hRdEB7vyoi2fwV*(.*Ik%/.4YBZv@D)+jKB@$7c6W:GaC/llKU695
     CALRCC2 DC2024 05 19bQCAt#xJCBSNfXK,\JMtdt[-]'y]S.E^Q@2Tr]x;6'oQh+n8XhV,695
     CALRCC2 DC2024 05 19#di_=LlLK*WF=2dYjj;_v]kDO#f+0iIy(gNmQYJQv6pPT)tExZu5695

Station data:
(104) San Marcello Pistoiese  (N44.064178 E10.803750)  Italy.  Observers P.
   Bacci, M. Maestripieri. Measurers P. Bacci, L. Tesi, G. Fagioli. 0.60-m
   reflector + CCD.
(185) Observatoire astronomique jurassien  (N47.353045 E7.421900)
   Switzerland.  Observer M. Ory. 0.61-m f/3.88 reflector + CCD.
(695) Kitt Peak  (N31.958395 W111.594670)  US/Arizona. Measurer S. Deen.
   3.5-m f/1.75 reflector + CCD0.9-m f/7.5 reflector + CCD4.0-m
   Ritchey-Chrétien + CCD0.61-m f/3.5 Schmidt + CCD2.3-m f/9 reflector + CCD.
(A71) Stixendorf  (N48.428772 E15.453300)  Austria.  Observers M. Jaeger, E.
   Prosperi, S. Prosperi. Measurer M. Jaeger. 0.3-m f/4 reflector + CCD0.2-m
   f/2.0 reflector + CCD.
(F51) Pan-STARRS 1, Haleakala  (N20.707234 W156.255910)  US/Hawaii.
   Observers J. Bulger, T. Lowe, A. Schultz, M. Willman. Measurers K.
   Chambers, S. Chastel, T. de Boer, L. Denneau, J. Fairlamb, H. Flewelling,
   M. Huber, C.-C. Lin, E. Magnier, Y. Ramanjooloo, R. Wainscoat, R. Weryk.
   1.8-m Ritchey-Chrétien + CCD.
(F52) Pan-STARRS 2, Haleakala  (N20.707382 W156.255910)  US/Hawaii.
   Observers J. Bulger, T. Dukes, T. Lowe, A. Schultz, M. Willman. Measurers
   K. Chambers, S. Chastel, T. de Boer, L. Denneau, J. Fairlamb, H.
   Flewelling, M. Huber, C.-C. Lin, E. Magnier, Y. Ramanjooloo, R. Wainscoat,
   R. Weryk. 1.8-m Ritchey-Chrétien + CCD.
(G00) AZM Martinsberg, Oed  (N48.381561 E15.126000)  Austria.  Observers M.
   Jaeger, E. Prosperi, S. Prosperi. Measurer M. Jaeger. 0.28-m f/2.2
   reflector + CCD.
(G96) Mt. Lemmon Survey  (N32.442729 W110.788720)  US/Arizona.  Observer E.
   J. Christensen. 1.5-m reflector + 10K CCD.
(I52) Steward Observatory, Mt. Lemmon Station  (N32.442570 W110.788920)
   US/Arizona.  Observers T. A. Pruyne, B. M. Africano, E. J. Christensen, G.
   A. Farneth, D. C. Fuls, A. R. Gibbs, A. D. Grauer, H. Gröller, J. A.
   Johnson, R. A. Kowalski, S. M. Larson, G. J. Leonard, D. Rankin, R. L.
   Seaman, F. C. Shelly, K. W. Wierzchoś. 1.0-m prime focus + CCD.
(K83) Beppe Forti Astronomical Observatory, Montelupo  (N43.755330
   E11.043170)  Italy.  Observers M. Tombelli, A. Mazzanti, E. Venticinque.
   Measurers G. Interrante, M. Iozzi, M. Tombelli, F. Bernardi. 0.40-m f/8
   Ritchey-Chrétien + CCD.
(L06) Sormano 2 Observatory, Bellagio Via Lattea  (N45.970100 E9.254030)
   Italy.  Observer G. Ventre. Measurers G. Ventre, P. Sicoli. 0.28-m f/10
   reflector + CCD.
(L27) 29PREMOTE Observatory, Dauban  (N43.999832 E5.647040)  France.
   Observer J.-F. Soulier. 0.20-m f/4 Newtonian reflector + CCD.
(M45) Starhopper Observatory, Sfantu Gheorghe  (N45.865582 E25.768900)
   Romania.  Observer F. Ursache. 0.41-m f/7.5 reflector + CMO.
(U94) iTelescope Observatory, Beryl Junction  (N37.737780 W113.697500)
   US/Utah.  Observer H. Sato. 0.51-m f/4.5 Corrected Dall-Kirkham +
   CCD0.51-m f/6.8 astrograph + f/4.5 focal reducer + CCD.
(Y66) Two-Meter Twin Telescope, TTT2, Teide  (N28.298728 W16.509470)  Canary
   Islands (Spain).

Orbital elements:  CALRCC2
   Perihelion 2025 Mar 19.73263 +/- 0.0223 TT = 17:34:58 (JD 2460754.23263)
Epoch 2024 May 19.0 TT = JDT 2460449.5   Earth MOID: 0.9400   Ur: 0.5904
M 359.83377865 +/- 0.0013           (J2000 ecliptic)             AutoNEOCP
n   0.00054546 +/- 4.45e-6          Peri.  143.15763 +/- 0.0046
a 148.351120 +/- 0.807              Node   189.05810 +/- 0.0031
e   0.9877949 +/- 6.69e-5           Incl.   79.29197 +/- 0.0033
P1806.91                   H 14.31  G  0.15   U  4.5
q 1.81063225 +/- 0.000225    Q 294.891608 +/- 1.61
56 of 57 observations 2024 Mar. 18-May 19; mean residual 0".45
Residuals in arcseconds: 
240318 F52  .01+  .03-    240511 L27  .50+  .50+    240514 A71  1.3+  .48+    
240318 F52  .17-  .09-    240511 104  .70-  .20+    240514 A71  .10-  .11-    
240318 F52  .12+  .16+    240512 L27  .13+  .28-    240514 A71  .14+  .13-    
240329 F52  .06+  .06-    240512 K83  .13-  .32-    240515 M45  .41-  .24-    
240420 F52  .05+  .22+    240512 K83  .79-  .37+    240515 M45  .58-  .22-    
240426 F52  .02+  .10-    240512 L27  .37+  .20-    240516 Y66  .37+  .39+    
240427 F51  .16-  .23-    240512 L27  .13+  .13-    240516 Y66  .20+  .18+    
240511 G96  .54+  .38-    240512 U94  .60+  .24+    240516 Y66  .58-  .17+    
240511 G96  .64+  .90-    240512 U94  .17+  .14+    240516 Y66  .74+  .26-    
240511 G96  .58-  .66-    240513 185  .07+  .48+    240516 Y66  .25+  .26+    
240511 G96  .66+  1.0-    240513 185  .50+  .57+    240516 Y66  .53+  .20+    
240511 I52  .01-  .12+    240513 185  .72-  1.0-    240517 L06  .23-  .50-    
240511 I52  .32-  .19+    240513 G00  .39-  .15+    240517 L06  .10-  .33-    
240511 I52  .84-  .50+    240513 G00  .37-  .25+    240517 Y66  .08+  .84-    
240511 I52( .55+  2.0+)   240513 G00  .55+  .26+    240517 Y66  .30-  .50-    
240511 Y66  .09+  .22+    240514 I52  .27-  .55+    240517 Y66  .12+  .76-    
240511 Y66  .64+  .75+    240514 I52  .30+  .64-    240519 695  .07-  .14+    
240511 Y66  .08+  .98+    240514 I52  .06-  .40-    240519 695  .01-  .20+    
240511 104  .26-  1.5+    240514 I52  .06-  .08-    240519 695  .06-  .27+    

Ephemerides (geocentric):
Date (UTC) HH   RA             Dec           delta  r     elong  mag " sig PA
